GW2042 Weather Reports


Display with metric or nautical units.
time (UTC)temp
F
wind
direction
speed
MPH
gust
MPH
rain 1hr
in
rain 24hr
in
rain mn
in
humidity
%
barometer
mb
20260510110033 66 0 0.0 4.0 0.00 0.00 0.00 91 1012.6
20260510105516 66 0 0.0 3.0 0.00 0.00 0.00 91 1012.4
20260510105016 66 86 0.0 3.0 0.00 0.00 0.00 91 1012.4
20260510104535 66 53 0.0 3.0 0.00 0.00 0.00 92 1012.5
20260510104015 66 71 0.0 2.0 0.00 0.00 0.00 91 1012.4
20260510103515 66 84 0.0 1.0 0.00 0.00 0.00 91 1012.1
20260510103033 66 0 0.0 1.0 0.00 0.00 0.00 91 1011.9
20260510102516 67 0 0.0 1.0 0.00 0.00 0.00 91 1011.7
20260510102018 67 0 0.0 1.0 0.00 0.00 0.00 91 1011.6
20260510101533 67 0 0.0 1.0 0.00 0.00 0.00 91 1011.7
20260510101015 67 0 0.0 1.0 0.00 0.00 0.00 91 1011.6
20260510100515 67 0 0.0 3.0 0.00 0.00 0.00 90 1011.6
20260510100032 68 0 0.0 3.0 0.00 0.00 0.00 89 1011.7
20260510095515 68 0 0.0 3.0 0.00 0.00 0.00 90 1011.7
20260510095016 68 0 0.0 2.0 0.00 0.00 0.00 89 1011.7
20260510094530 68 0 0.0 6.0 0.00 0.00 0.00 89 1011.6
20260510094016 68 0 1.0 6.0 0.00 0.00 0.00 89 1011.2
20260510093516 68 164 1.0 7.0 0.00 0.00 0.00 89 1011.0
20260510093038 69 136 1.0 7.0 0.00 0.00 0.00 89 1010.9
20260510092516 69 153 1.0 6.0 0.00 0.00 0.00 89 1011.0
20260510092016 69 135 1.0 6.0 0.00 0.00 0.00 88 1011.1
20260510091534 69 134 1.0 7.0 0.00 0.00 0.00 88 1011.0
20260510091015 69 138 2.0 7.0 0.00 0.00 0.00 87 1011.0
20260510090515 70 124 2.0 7.0 0.00 0.00 0.00 87 1010.8
20260510090030 70 167 2.0 7.0 0.00 0.00 0.00 87 1010.7
20260510085516 70 157 2.0 7.0 0.00 0.00 0.00 86 1010.6
20260510085017 70 160 3.0 7.0 0.00 0.00 0.00 86 1010.4
20260510084533 71 128 2.0 7.0 0.00 0.00 0.00 85 1010.6
20260510084015 71 130 3.0 8.0 0.00 0.00 0.00 85 1010.5
20260510083518 71 137 3.0 8.0 0.00 0.00 0.00 85 1010.4
20260510083038 71 153 3.0 7.0 0.00 0.00 0.00 84 1010.3
20260510082515 71 165 3.0 9.0 0.00 0.00 0.00 84 1010.3
20260510082015 71 138 3.0 9.0 0.00 0.00 0.00 84 1010.2
20260510081540 72 165 3.0 9.0 0.00 0.00 0.00 84 1010.1
20260510081016 72 141 3.0 7.0 0.00 0.00 0.00 84 1010.2
20260510080516 72 142 3.0 9.0 0.00 0.00 0.00 84 1010.3
20260510080030 72 163 2.0 9.0 0.00 0.00 0.00 84 1010.2
20260510075515 72 155 2.0 6.0 0.00 0.05 0.00 84 1010.3
20260510075015 72 196 3.0 9.0 0.00 0.05 0.00 83 1010.3
20260510074537 72 161 3.0 9.0 0.00 0.05 0.00 83 1010.3
20260510074019 72 153 2.0 8.0 0.00 0.05 0.00 83 1010.4
20260510073518 72 157 3.0 8.0 0.00 0.05 0.00 82 1010.4
20260510073044 72 167 2.0 7.0 0.00 0.05 0.00 82 1010.4
20260510072521 72 175 2.0 7.0 0.00 0.05 0.00 82 1010.3
20260510072016 72 151 2.0 7.0 0.00 0.05 0.00 82 1010.4
20260510071536 73 144 2.0 7.0 0.00 0.05 0.00 81 1010.4
20260510071015 73 183 2.0 7.0 0.00 0.05 0.00 81 1010.4
20260510070516 73 133 3.0 6.0 0.00 0.05 0.00 80 1010.4
20260510070036 73 192 2.0 6.0 0.00 0.05 0.00 80 1010.3
20260510065516 73 173 3.0 8.0 0.00 0.05 0.00 79 1010.4
20260510065016 73 114 2.0 8.0 0.00 0.05 0.00 79 1010.3
20260510064546 73 170 2.0 7.0 0.00 0.05 0.00 78 1010.3
20260510064015 73 174 2.0 7.0 0.00 0.05 0.00 78 1010.4
20260510063515 73 158 3.0 10.0 0.00 0.05 0.00 78 1010.3
20260510063040 73 132 3.0 10.0 0.00 0.05 0.00 78 1010.3
20260510062515 73 167 2.0 8.0 0.00 0.05 0.00 77 1010.2
20260510062020 73 179 2.0 11.0 0.00 0.05 0.00 77 1010.3
20260510061536 74 177 3.0 11.0 0.00 0.05 0.00 77 1010.2
20260510061015 74 165 2.0 7.0 0.00 0.05 0.00 77 1010.1
20260510060515 73 143 2.0 6.0 0.00 0.05 0.00 77 1010.0
20260510060042 74 150 2.0 7.0 0.00 0.05 0.00 76 1010.1
20260510055514 74 176 2.0 7.0 0.00 0.05 0.00 77 1010.1
20260510055018 74 167 2.0 7.0 0.00 0.05 0.00 77 1010.1
20260510054530 73 215 2.0 7.0 0.00 0.05 0.00 77 1010.1
20260510054019 73 155 2.0 7.0 0.00 0.05 0.00 78 1009.9
20260510053515 73 173 2.0 7.0 0.00 0.05 0.00 77 1010.0
20260510053041 72 150 2.0 6.0 0.00 0.05 0.00 77 1010.0
20260510052516 72 166 3.0 6.0 0.00 0.05 0.00 77 1010.0
20260510052017 72 171 2.0 9.0 0.00 0.05 0.00 75 1010.1
20260510051531 72 173 2.0 9.0 0.00 0.05 0.00 74 1010.1
20260510051019 72 150 3.0 8.0 0.00 0.05 0.00 73 1010.1
20260510050517 71 159 2.0 9.0 0.00 0.05 0.00 72 1010.0
20260510050029 71 144 3.0 9.0 0.00 0.05 0.00 72 1010.0
20260510045515 70 159 3.0 7.0 0.00 0.05 0.05 71 1010.0
20260510045015 70 148 2.0 6.0 0.00 0.05 0.05 71 1010.0
20260510044543 70 130 2.0 6.0 0.00 0.05 0.05 71 1010.1
20260510044016 69 162 2.0 5.0 0.00 0.05 0.05 72 1010.1
20260510043516 69 160 1.0 4.0 0.00 0.05 0.05 72 1010.2
20260510043036 69 133 1.0 2.0 0.00 0.05 0.05 71 1010.2
20260510042515 70 135 1.0 3.0 0.00 0.05 0.05 71 1010.3
20260510042016 70 150 1.0 3.0 0.00 0.05 0.05 71 1010.2
20260510041534 70 146 1.0 5.0 0.00 0.05 0.05 71 1010.4
20260510041015 70 122 2.0 5.0 0.00 0.05 0.05 71 1010.4
20260510040519 70 150 1.0 5.0 0.00 0.05 0.05 71 1010.6
20260510040040 70 141 1.0 3.0 0.00 0.05 0.05 71 1010.4
20260510035515 70 136 1.0 2.0 0.00 0.05 0.05 70 1010.4
20260510035018 70 136 0.0 2.0 0.00 0.05 0.05 69 1010.4
20260510034536 70 132 0.0 2.0 0.00 0.05 0.05 69 1010.4
20260510034015 70 0 0.0 1.0 0.00 0.05 0.05 69 1010.5
20260510033515 70 0 0.0 1.0 0.00 0.05 0.05 69 1010.5
20260510033047 70 0 0.0 5.0 0.00 0.05 0.05 69 1010.4
20260510032514 70 132 0.0 5.0 0.00 0.05 0.05 70 1010.3
20260510032023 70 132 1.0 5.0 0.00 0.05 0.05 69 1010.4
20260510031534 70 0 0.0 3.0 0.00 0.05 0.05 70 1010.3
20260510031015 70 107 0.0 6.0 0.00 0.05 0.05 69 1010.2
20260510030524 71 121 0.0 6.0 0.00 0.05 0.05 67 1010.2
20260510030042 72 129 1.0 6.0 0.00 0.05 0.05 66 1010.1
20260510025515 72 137 1.0 4.0 0.00 0.05 0.05 66 1010.1
20260510025018 72 161 1.0 4.0 0.00 0.05 0.05 67 1010.0
20260510024532 71 161 1.0 4.0 0.00 0.05 0.05 68 1010.0
20260510024015 70 162 0.0 2.0 0.00 0.05 0.05 69 1010.0
20260510023516 71 161 1.0 2.0 0.00 0.05 0.05 69 1009.9
20260510023030 71 0 0.0 1.0 0.00 0.05 0.05 69 1009.9
20260510022515 71 0 0.0 1.0 0.00 0.05 0.05 68 1009.8
20260510022015 71 0 0.0 1.0 0.00 0.05 0.05 67 1009.9
20260510021534 72 0 0.0 1.0 0.00 0.05 0.05 67 1009.7
20260510021014 72 0 0.0 1.0 0.00 0.05 0.05 66 1009.6
20260510020515 73 0 0.0 1.0 0.00 0.05 0.05 64 1009.6
20260510020033 73 0 0.0 1.0 0.00 0.05 0.05 64 1009.5
20260510015516 73 0 0.0 1.0 0.00 0.05 0.05 64 1009.5
20260510015024 74 0 0.0 1.0 0.00 0.05 0.05 62 1009.4
20260510014538 75 0 0.0 2.0 0.00 0.05 0.05 61 1009.4
20260510014016 76 161 0.0 2.0 0.00 0.05 0.05 61 1009.4
20260510013515 76 161 0.0 2.0 0.00 0.05 0.05 61 1009.2
20260510013028 76 161 0.0 2.0 0.00 0.05 0.05 61 1009.1
20260510012519 76 0 0.0 1.0 0.00 0.05 0.05 61 1009.1
20260510012015 76 0 0.0 1.0 0.00 0.05 0.05 61 1009.1
20260510011532 77 0 0.0 2.0 0.00 0.05 0.05 59 1009.1
20260510011015 79 0 0.0 4.0 0.00 0.05 0.05 55 1009.1
20260510010514 80 0 0.0 4.0 0.00 0.05 0.05 54 1009.1
20260510010030 80 125 0.0 4.0 0.00 0.05 0.05 54 1009.1
20260510005515 80 0 0.0 1.0 0.00 0.05 0.05 53 1009.0
20260510005015 81 0 0.0 2.0 0.00 0.05 0.05 53 1009.0
20260510004534 82 0 0.0 2.0 0.00 0.05 0.05 50 1009.0
20260510004016 83 0 0.0 2.0 0.00 0.05 0.05 50 1009.0
20260510003515 83 0 0.0 2.0 0.00 0.05 0.05 47 1009.0
20260510003028 84 157 0.0 2.0 0.00 0.05 0.05 47 1009.1
20260510002515 84 0 0.0 2.0 0.00 0.05 0.05 46 1009.1
20260510002016 85 176 0.0 3.0 0.00 0.05 0.05 46 1009.3
20260510001530 85 167 0.0 3.0 0.00 0.05 0.05 45 1009.3
20260510001015 85 167 0.0 5.0 0.00 0.05 0.05 45 1009.3
20260510000515 86 188 1.0 5.0 0.00 0.05 0.05 44 1009.3
20260510000032 86 0 0.0 5.0 0.00 0.05 0.05 43 1009.2
20260509235514 87 144 1.0 4.0 0.00 0.05 0.05 41 1009.2
20260509235019 87 166 1.0 4.0 0.00 0.05 0.05 44 1009.1
20260509234542 87 196 1.0 3.0 0.00 0.05 0.05 45 1009.1
20260509234016 88 131 1.0 3.0 0.00 0.05 0.05 43 1009.1
20260509233515 88 0 0.0 5.0 0.00 0.05 0.05 43 1009.1
20260509233029 88 162 1.0 5.0 0.00 0.05 0.05 42 1009.1
20260509232516 88 0 1.0 5.0 0.00 0.05 0.05 42 1009.0
20260509232013 88 184 1.0 5.0 0.00 0.05 0.05 41 1009.0
20260509231528 88 0 2.0 5.0 0.00 0.05 0.05 42 1009.1
20260509231017 89 0 1.0 7.0 0.00 0.05 0.05 43 1009.1
20260509230515 89 262 3.0 7.0 0.00 0.05 0.05 41 1009.1
20260509230038 89 194 0.0 7.0 0.00 0.05 0.05 42 1009.1
20260509225516 89 0 2.0 7.0 0.00 0.05 0.05 44 1009.1
20260509225014 89 194 2.0 7.0 0.00 0.05 0.05 43 1009.1
20260509224529 89 146 2.0 7.0 0.00 0.05 0.05 43 1009.1
20260509224015 89 185 1.0 5.0 0.00 0.05 0.05 44 1009.1
20260509223515 89 0 1.0 6.0 0.00 0.05 0.05 40 1009.2
20260509223030 89 149 1.0 7.0 0.00 0.05 0.05 43 1009.2
20260509222515 89 184 2.0 7.0 0.00 0.05 0.05 43 1009.1
20260509222014 89 232 1.0 5.0 0.00 0.05 0.05 41 1009.1
20260509221536 89 188 2.0 7.0 0.00 0.05 0.05 39 1009.1
20260509221015 90 209 1.0 7.0 0.00 0.05 0.05 41 1009.1
20260509220516 89 0 1.0 5.0 0.00 0.05 0.05 40 1009.0
20260509220032 90 140 1.0 8.0 0.00 0.05 0.05 40 1009.1
20260509215514 90 161 2.0 8.0 0.00 0.05 0.05 39 1009.1
20260509215014 89 132 1.0 7.0 0.00 0.05 0.05 40 1009.2
20260509214532 90 105 1.0 7.0 0.00 0.05 0.05 38 1009.3
20260509214016 90 228 4.0 7.0 0.00 0.05 0.05 40 1009.3
20260509213515 90 147 1.0 6.0 0.00 0.05 0.05 40 1009.3
20260509213034 89 0 0.0 7.0 0.00 0.05 0.05 42 1009.3
20260509212514 90 157 2.0 9.0 0.00 0.05 0.05 40 1009.4
20260509212016 90 225 4.0 9.0 0.00 0.05 0.05 41 1009.5
20260509211533 91 159 2.0 8.0 0.00 0.05 0.05 40 1009.5
20260509211017 91 165 2.0 8.0 0.00 0.05 0.05 41 1009.6
20260509210516 89 134 1.0 6.0 0.00 0.05 0.05 43 1009.7
20260509210036 90 209 2.0 10.0 0.00 0.05 0.05 41 1009.8
20260509205515 90 161 3.0 10.0 0.00 0.05 0.05 42 1009.9
20260509205018 90 33 2.0 6.0 0.00 0.05 0.05 42 1010.0
20260509204532 90 92 2.0 7.0 0.00 0.05 0.05 41 1010.0
20260509204015 89 230 3.0 7.0 0.00 0.05 0.05 43 1010.1
20260509203516 89 256 3.0 7.0 0.00 0.05 0.05 41 1010.2
20260509203031 90 186 1.0 8.0 0.00 0.05 0.05 41 1010.3
20260509202515 91 159 2.0 8.0 0.00 0.05 0.05 43 1010.2
20260509202015 90 98 2.0 7.0 0.00 0.05 0.05 45 1010.4
20260509201531 89 234 2.0 6.0 0.00 0.05 0.05 45 1010.3
20260509201015 89 128 1.0 5.0 0.00 0.05 0.05 48 1010.3
20260509200515 89 234 1.0 5.0 0.00 0.05 0.05 45 1010.4
20260509200030 88 125 2.0 5.0 0.00 0.05 0.05 46 1010.4
20260509195521 87 343 1.0 6.0 0.00 0.05 0.05 47 1010.4
20260509195015 89 140 1.0 6.0 0.00 0.05 0.05 45 1010.6
20260509194533 89 150 1.0 5.0 0.00 0.05 0.05 47 1010.6
20260509194016 88 225 2.0 7.0 0.00 0.05 0.05 47 1010.8
20260509193516 89 158 2.0 7.0 0.00 0.05 0.05 50 1010.9
20260509193036 89 123 3.0 9.0 0.00 0.05 0.05 47 1010.9
20260509192515 89 110 2.0 9.0 0.00 0.05 0.05 47 1011.0
20260509192018 88 107 2.0 5.0 0.00 0.05 0.05 50 1011.1
20260509191530 88 93 1.0 5.0 0.00 0.05 0.05 51 1011.1
20260509191016 87 74 2.0 6.0 0.00 0.05 0.05 52 1011.0
20260509190517 86 346 2.0 6.0 0.00 0.05 0.05 49 1011.1
20260509190029 87 343 1.0 6.0 0.00 0.05 0.05 48 1011.2
20260509185516 87 55 2.0 6.0 0.00 0.07 0.05 50 1011.2
20260509185016 86 78 1.0 8.0 0.00 0.07 0.05 50 1011.2
20260509184538 86 69 2.0 8.0 0.00 0.07 0.05 48 1011.2
20260509184016 86 59 1.0 4.0 0.00 0.07 0.05 51 1011.4
20260509183516 85 86 1.0 4.0 0.00 0.07 0.05 49 1011.4
20260509183035 84 132 1.0 5.0 0.00 0.07 0.05 51 1011.4
20260509182515 83 57 2.0 5.0 0.00 0.07 0.05 51 1011.6
20260509182015 83 35 2.0 8.0 0.00 0.07 0.05 51 1011.7
20260509181530 84 216 3.0 8.0 0.00 0.07 0.05 51 1011.8
20260509181022 84 294 2.0 7.0 0.00 0.07 0.05 49 1011.8
20260509180516 85 331 2.0 5.0 0.00 0.07 0.05 51 1011.9
20260509180032 84 0 1.0 6.0 0.00 0.07 0.05 55 1012.0
20260509175515 84 5 3.0 8.0 0.00 0.07 0.05 54 1012.0
20260509175019 84 0 0.0 8.0 0.00 0.07 0.05 58 1012.2
20260509174532 83 328 2.0 8.0 0.00 0.07 0.05 54 1012.3
20260509174021 82 0 1.0 8.0 0.00 0.07 0.05 57 1012.4
20260509173517 82 304 2.0 8.0 0.00 0.07 0.05 57 1012.4
20260509173029 81 0 2.0 8.0 0.00 0.07 0.05 58 1012.4
20260509172520 82 286 2.0 8.0 0.00 0.07 0.05 59 1012.5
20260509172016 81 0 2.0 8.0 0.00 0.07 0.05 60 1012.4
20260509171541 81 315 3.0 8.0 0.00 0.07 0.05 60 1012.4
20260509171015 81 355 2.0 9.0 0.00 0.07 0.05 61 1012.4
20260509170516 81 278 4.0 9.0 0.00 0.07 0.05 61 1012.4
20260509170032 81 327 2.0 6.0 0.00 0.07 0.05 62 1012.5
20260509165515 81 44 2.0 7.0 0.00 0.07 0.05 64 1012.6
20260509165015 80 355 2.0 7.0 0.00 0.07 0.05 63 1012.5
20260509164533 80 344 2.0 7.0 0.00 0.07 0.05 64 1012.6
20260509164017 79 317 2.0 9.0 0.00 0.07 0.05 65 1012.7
20260509163516 79 298 3.0 9.0 0.00 0.07 0.05 65 1012.7
20260509163048 79 245 1.0 7.0 0.00 0.07 0.05 65 1012.8
20260509162514 78 0 2.0 8.0 0.00 0.07 0.05 67 1012.8
20260509162014 78 342 3.0 8.0 0.00 0.07 0.05 66 1012.9
20260509161533 78 281 3.0 8.0 0.00 0.07 0.05 67 1012.9
20260509161018 78 316 4.0 8.0 0.00 0.07 0.05 68 1012.9
20260509160515 77 311 2.0 8.0 0.00 0.07 0.05 68 1012.9
20260509160030 77 238 2.0 8.0 0.00 0.07 0.05 66 1012.9
20260509155514 76 265 4.0 8.0 0.00 0.07 0.05 69 1012.9
20260509155014 76 314 3.0 7.0 0.00 0.07 0.05 68 1012.9
20260509154535 76 26 2.0 6.0 0.00 0.07 0.05 72 1012.9
20260509154015 76 302 2.0 7.0 0.00 0.07 0.05 69 1012.9
20260509153514 75 301 3.0 7.0 0.00 0.07 0.05 70 1012.9
20260509153034 75 330 1.0 5.0 0.00 0.07 0.05 71 1012.8
20260509152514 75 306 2.0 5.0 0.00 0.07 0.05 70 1012.8
20260509152015 74 264 0.0 4.0 0.00 0.07 0.05 74 1012.8
20260509151532 74 329 0.0 3.0 0.00 0.07 0.05 72 1012.9
20260509151014 74 150 1.0 4.0 0.00 0.07 0.05 71 1012.9
20260509150514 73 0 1.0 4.0 0.00 0.07 0.05 72 1012.9
20260509150029 73 321 1.0 4.0 0.00 0.07 0.05 70 1012.9
20260509145514 73 298 2.0 4.0 0.00 0.07 0.05 73 1012.9
20260509145015 72 15 1.0 3.0 0.00 0.07 0.05 72 1013.0
20260509144546 72 344 1.0 3.0 0.00 0.07 0.05 74 1013.0
20260509144015 71 0 0.0 4.0 0.00 0.07 0.05 74 1013.1
20260509143522 71 0 0.0 5.0 0.00 0.07 0.05 79 1013.0
20260509143032 70 67 1.0 5.0 0.00 0.07 0.05 78 1013.0
20260509142517 70 335 1.0 5.0 0.00 0.07 0.05 77 1013.0
20260509142015 69 319 2.0 5.0 0.00 0.07 0.05 79 1012.9
20260509141539 68 0 1.0 4.0 0.00 0.07 0.05 81 1013.1
20260509141015 67 19 0.0 4.0 0.00 0.07 0.05 83 1013.1
20260509140516 67 9 1.0 4.0 0.00 0.07 0.05 82 1013.0
20260509140034 67 59 0.0 4.0 0.00 0.07 0.05 85 1013.0
20260509135515 66 0 1.0 4.0 0.00 0.07 0.05 85 1013.0
20260509135017 66 338 1.0 4.0 0.00 0.07 0.05 85 1013.0
20260509134529 66 355 1.0 4.0 0.00 0.07 0.05 85 1013.0
20260509134019 66 0 1.0 4.0 0.00 0.07 0.05 86 1013.0
20260509133516 65 332 1.0 5.0 0.00 0.07 0.05 86 1012.8
20260509133033 65 342 2.0 5.0 0.00 0.07 0.05 86 1012.8
20260509132516 65 342 2.0 5.0 0.00 0.07 0.05 87 1012.7
20260509132016 65 315 2.0 5.0 0.00 0.07 0.05 87 1012.8
20260509131538 64 311 1.0 4.0 0.00 0.07 0.05 89 1012.7
20260509131017 64 315 2.0 5.0 0.00 0.07 0.05 89 1012.7
20260509130516 63 329 1.0 5.0 0.00 0.07 0.05 90 1012.5
20260509130032 63 12 1.0 7.0 0.00 0.07 0.05 90 1012.4
20260509125516 63 0 2.0 7.0 0.00 0.07 0.05 90 1012.4
20260509125016 63 340 1.0 6.0 0.00 0.07 0.05 90 1012.3
20260509124543 63 340 2.0 5.0 0.00 0.07 0.05 90 1012.2
20260509124017 63 329 1.0 4.0 0.00 0.07 0.05 90 1012.1
20260509123516 63 338 0.0 4.0 0.00 0.07 0.05 91 1012.1
20260509123030 63 336 1.0 4.0 0.00 0.07 0.05 91 1012.1
20260509122515 63 346 1.0 4.0 0.00 0.07 0.05 90 1011.9
20260509122015 63 304 2.0 4.0 0.00 0.07 0.05 90 1011.8
20260509121535 63 355 0.0 2.0 0.00 0.07 0.05 91 1011.7
20260509121017 63 0 0.0 1.0 0.00 0.07 0.05 91 1011.5
20260509120517 63 0 0.0 2.0 0.00 0.07 0.05 91 1011.5
20260509120029 62 0 0.0 2.0 0.00 0.07 0.05 92 1011.4
20260509115517 63 0 0.0 2.0 0.00 0.07 0.05 91 1011.3
20260509115016 62 0 0.0 3.0 0.00 0.07 0.05 92 1011.2
20260509114533 63 0 0.0 3.0 0.00 0.07 0.05 92 1011.1
20260509114016 63 0 0.0 3.0 0.00 0.07 0.05 92 1011.0
20260509113516 63 0 0.0 3.0 0.00 0.07 0.05 92 1010.8
20260509113030 63 0 0.0 3.0 0.00 0.07 0.05 91 1010.8
20260509112517 63 0 0.0 3.0 0.00 0.07 0.05 91 1010.8
20260509112016 63 0 0.0 4.0 0.00 0.07 0.05 91 1010.6
20260509111531 63 58 0.0 4.0 0.00 0.07 0.05 91 1010.7
20260509111016 63 47 1.0 6.0 0.00 0.07 0.05 91 1010.5
20260509110515 63 67 1.0 6.0 0.00 0.07 0.05 91 1010.6